Regional Weather Roundup
Issued by NWS

Home | Current Version | Previous Version | Graphics & Text | Print | Product List | Glossary Off
Versions: 1 2 3 4 5 6 7 8 9 10 11 12 13 14 15 16 17 18 19 20 21 22 23 24 25 26 27 28 29 30 31 32 33 34 35 36 37 38 39 40 41 42 43 44 45 46 47 48 49 50

000
ASUS43 KFSD 271710
RWRSD

WEATHER ROUNDUP FOR SOUTH DAKOTA
NATIONAL WEATHER SERVICE SIOUX FALLS SD
1100 AM CST THU NOV 27 2014

NOTE: "FAIR" INDICATES FEW OR NO CLOUDS BELOW 12,000 FEET WITH NO
SIGNIFICANT WEATHER AND/OR OBSTRUCTIONS TO VISIBILITY.


SDZ001>005-009-010-012>017-271800-
NORTHWEST AND NORTH CENTRAL SOUTH DAKOTA

CITY           SKY/WX    TMP DP  RH WIND       PRES   REMARKS
BUFFALO          N/A     20  17  88 S22       29.94F WCI   3
FAITH            N/A     16  12  84 S20G26    30.10F WCI  -1
MOBRIDGE       CLOUDY    10   2  69 SE12      30.24F WCI  -5
$$

SDZ012>016-024>037-041>051-057-063-072>074-271800-
SOUTHWEST AND SOUTH CENTRAL SOUTH DAKOTA

CITY           SKY/WX    TMP DP  RH WIND       PRES   REMARKS
RAPID CTY ARPT CLOUDY    21  20  96 SE12      30.07F WCI   9
PIERRE         CLOUDY    16  10  77 SE17      30.26F WCI   0
CUSTER         PTSUNNY   41  25  53 W7        30.04R
ELLSWORTH AFB  CLOUDY    23  21  94 S10       30.05  WCI  12
PHILIP         CLOUDY    22  14  71 E14       30.16F WCI   9
PINE RIDGE     PTSUNNY   34  25  69 S10       30.08F WCI  26
SPEARFISH      FAIR      25  23  93 SE5       29.99F WCI  19
WINNER         FAIR      23  11  60 SE18      30.24F WCI   9
$$

SDZ004>011-016>023-039-040-271800-
NORTHEAST SOUTH DAKOTA

CITY           SKY/WX    TMP DP  RH WIND       PRES   REMARKS
ABERDEEN       SUNNY      2  -6  69 S12       30.42F WCI -15
WATERTOWN      MOSUNNY    0  -8  69 S10       30.40S WCI -16
SISSETON         N/A     -1  -7  75 S10       30.45F WCI -17
$$

SDZ017-020-022-023-036>040-048>070-271800-
SOUTHEAST SOUTH DAKOTA

CITY           SKY/WX    TMP DP  RH WIND       PRES   REMARKS
SIOUX FALLS    PTSUNNY    4  -7  60 SE6       30.47F WCI  -7
HURON          CLOUDY     5  -5  63 SE10      30.42F WCI -10
CHAMBERLAIN    CLOUDY    14   5  67 SE14G21   30.32F WCI  -1
MITCHELL       CLOUDY    10  -3  55 SE13      30.44F WCI  -5
YANKTON        CLOUDY    10   1  67 E9        30.48F WCI  -2
$$

ABBREVIATIONS USED IN REMARKS
   TC - TEMPERATURE IN CELSIUS
  WCI - WIND CHILL INDEX
   HX - HEAT INDEX
  VSB - VISIBILITY



USA.gov is the U.S. government's official web portal to all federal, state and local government web resources and services.